Regional Weather Roundup
Issued by NWS Sterling, VA

Home | Current Version | Previous Version | Text Only | Print | Product List | Glossary Off
Versions: 1 2 3 4 5 6 7 8 9 10 11 12 13 14 15 16 17 18 19 20 21 22 23 24 25 26 27 28 29 30 31 32 33 34 35 36 37 38 39 40 41 42 43 44 45 46 47 48 49 50

000
ASUS41 KLWX 110611
RWRLWX

REGIONAL WEATHER ROUNDUP
NATIONAL WEATHER SERVICE BALTIMORE MD/WASHINGTON DC
100 AM EST MON DEC 11 2017

Note: "FAIR" indicates few or no clouds below 12,000 feet
with no significant weather and/or obstructions to visibility.
 TC=TEMPERATURE CELSIUS

 * =Non NWS site. Station does not report precipitation (e.g. rain,
    snow, etc.), thunder, or fog.

DCZ001-MDZ009-015-VAZ040>042-051-053>054-110700-
WASHINGTON METRO

CITY           SKY/WX    TMP DP  RH WIND       PRES   REMARKS
WASHINGTON NAT CLOUDY    37  28  70 SW8       30.06F
DULLES         CLOUDY    34  26  72 S6        30.02F
ANDREWS AFB    CLOUDY    35  25  67 SW5       30.04S
FT BELVOIR     CLOUDY    37  25  63 CALM      30.06S
QUANTICO       CLOUDY    38  28  67 SW3       30.07S
COLLEGE PARK*  CLOUDY    36  27  68 CALM      30.05S
LEESBURG*      CLOUDY    34  30  86 S5        30.02F
MANASSAS*      CLOUDY    33  28  81 S5        30.04F
GAITHERSBURG*  CLOUDY    34  23  64 CALM      30.01F

$$

MDZ006>007-011-014-110700-
BALTIMORE METRO

CITY           SKY/WX    TMP DP  RH WIND       PRES   REMARKS
BWI AIRPORT    CLOUDY    37  25  61 S9        30.02F
MD SCIENCE CTR   N/A     37  27  67 MISG      30.04F
MARTIN STATE   CLOUDY    36  30  80 CALM      30.06F
ANNAPOLIS      CLOUDY    37  29  72 W7        30.05S
FORT MEADE*    CLOUDY    32  30  93 S6        30.06F

$$

MDZ012-015-019>023-110700-
MARYLAND EASTERN SHORE

CITY           SKY/WX    TMP DP  RH WIND       PRES   REMARKS
OCEAN CITY     CLOUDY    36  31  82 SW6       30.08F
SALISBURY      CLOUDY    33  30  88 S3        30.06F
BAY BRIDGE AP* CLOUDY    37  27  65 SW13      30.06S
CAMBRIDGE*     CLOUDY    37  28  70 CALM      30.06F
EASTON*        MOCLDY    37  30  76 SW3       30.09S

$$

MDZ017>025-110700-
SOUTHERN MARYLAND

CITY           SKY/WX    TMP DP  RH WIND       PRES   REMARKS
PATUXENT RIVER CLOUDY    36  28  73 SW10      30.06F WCI  28
ST INIGOES     CLOUDY    38  28  67 SW12      30.06F
LEONARDTOWN*   CLOUDY    36  30  80 SW8       30.07S

$$

MDZ003>005-110700-
NORTH CENTRAL MARYLAND

CITY           SKY/WX    TMP DP  RH WIND       PRES   REMARKS
FREDERICK*     CLOUDY    32  25  74 CALM      30.05F
HAGERSTOWN APT CLOUDY    34  21  59 S6        29.98F
WESTMINSTER*   CLOUDY    34  25  69 CALM      29.99F

$$

MDZ501>502-110700-
WESTERN MARYLAND

CITY           SKY/WX    TMP DP  RH WIND       PRES   REMARKS
OAKLAND*       CLOUDY    25  18  74 W14G26    29.85F WCI  13
CUMBERLAND*    PTCLDY    36  21  55 SW8G18    30.03S

$$

VAZ025>031-110700-
SHENANDOAH VALLEY

CITY           SKY/WX    TMP DP  RH WIND       PRES   REMARKS
WINCHESTER*    MOCLDY    32  19  59 SW3       29.99F
FRONT ROYAL*   FAIR      34  21  60 CALM      29.98F
LURAY*         PTCLDY    32  23  69 S3        29.98F
NEW MARKET*    PTCLDY    31  21  67 CALM      29.98F
STAUNTON*      PTCLDY    32  19  59 S8        30.00F WCI  25
WAYNESBORO*    MOCLDY    32  17  54 SW6       29.98F

$$

WVZ021-048>050-054>055-110700-
EASTERN WEST VIRGINIA PANHANDLE

CITY           SKY/WX    TMP DP  RH WIND       PRES   REMARKS
MARTINSBURG    CLOUDY    32  20  61 CALM      29.99F
PETERSBURG*    CLEAR     38  18  44 SW13G26   29.97S

$$

VAZ036>039-050-110700-
CENTRAL FOOTHILLS

CITY           SKY/WX    TMP DP  RH WIND       PRES   REMARKS
CHARLOTTESVILL CLOUDY    35  23  61 S7        30.00F
CULPEPER*      CLOUDY    36  24  61 S3        30.04F
ORANGE*        CLOUDY    34  27  75 CALM      30.03F
GORDONSVILLE*  CLOUDY    33  26  76 SW3       30.02F
WARRENTON*     CLOUDY    36  23  58 S3        30.02F

$$

VAZ055>057-110700-
NORTH AND CENTRAL PIEDMONT

CITY           SKY/WX    TMP DP  RH WIND       PRES   REMARKS
FREDERICKSBRG* CLOUDY    36  29  73 S3        30.04F
STAFFORD*      CLOUDY    34  27  74 CALM      30.08F

$$

NCZ024-NYZ072-PAZ021-071-VAZ022-071-110700-
OTHER REGIONAL OBSERVATIONS

CITY           SKY/WX    TMP DP  RH WIND       PRES   REMARKS
NEW YORK CITY  CLOUDY    36  21  54 VRB5G18   30.02F
PHILADELPHIA   CLOUDY    35  27  72 SW9       30.04F WCI  28
PITTSBURGH     CLOUDY    33  18  53 SW7       29.95F
ROANOKE        CLEAR     35  17  47 W10       30.06F WCI  27
RICHMOND       MOCLDY    33  27  78 S9        30.07F WCI  25
RALEIGH        CLEAR     28  24  85 W5        30.14F

$$

ANZ530>537-110700-
MARINE OBSERVATIONS

STATION/POSITION TIME  TEMP    WIND        PRES
                       AIR SEA DIR/SP/G
                 (UTC) (F)     (DEG/KT/KT) (MB)
THOMAS PT LIGHT  0600   37 47  270/ 13/ 14   N/A
BALT KEY BRIDGE  0548   36     210/ 12/ 14 1017.2F
COVE POINT       0548   37     250/ 13/ 19 1018.3F
LEWISETTA        0548   38 44  250/  8/ 12 1018.2F
SOLOMONS ISLAND  0548   38 48  230/ 10/ 12 1017.5F
PINEY POINT      0548          250/  8/ 11   N/A

$$




USA.gov is the U.S. government's official web portal to all federal, state and local government web resources and services.